TimeCEST,TemperatureF,Dew PointF,Humidity,Sea Level PressureIn,VisibilityMPH,Wind Direction,Wind SpeedMPH,Gust SpeedMPH,PrecipitationIn,Events,Conditions,WindDirDegrees,DateUTC
12:00 AM,77.0,69.8,78,30.04,4.3,West,8.1,-,N/A,,Partly Cloudy,270,2013-10-04 22:00:00
12:30 AM,75.2,69.8,83,30.04,4.3,ESE,4.6,-,N/A,,Partly Cloudy,110,2013-10-04 22:30:00
1:00 AM,75.2,69.8,83,30.04,4.3,Variable,1.2,-,N/A,,Partly Cloudy,0,2013-10-04 23:00:00
1:30 AM,73.4,68.0,83,30.04,4.3,NNE,1.2,-,N/A,,Partly Cloudy,20,2013-10-04 23:30:00
2:00 AM,72,69,85,30.05,4,East,3.5,,,,Mist,90,2013-10-05 00:00:00
2:00 AM,73.4,69.8,88,30.04,4.3,ENE,2.3,-,N/A,,Partly Cloudy,70,2013-10-05 00:00:00
2:30 AM,71.6,68.0,88,30.04,4.3,Calm,Calm,-,N/A,,Partly Cloudy,0,2013-10-05 00:30:00
3:00 AM,71.6,68.0,88,30.04,4.3,ENE,2.3,-,N/A,,Partly Cloudy,60,2013-10-05 01:00:00
3:30 AM,69.8,68.0,94,30.04,4.3,Calm,Calm,-,N/A,,Partly Cloudy,0,2013-10-05 01:30:00
4:00 AM,71.6,68.0,88,30.04,4.3,NNW,2.3,-,N/A,,Partly Cloudy,330,2013-10-05 02:00:00
4:30 AM,71.6,68.0,88,30.04,4.3,Calm,Calm,-,N/A,,Partly Cloudy,0,2013-10-05 02:30:00
5:00 AM,71.6,68.0,88,30.04,4.3,Variable,1.2,-,N/A,,Partly Cloudy,0,2013-10-05 03:00:00
5:30 AM,71.6,68.0,88,30.04,4.3,Calm,Calm,-,N/A,,Partly Cloudy,0,2013-10-05 03:30:00
6:00 AM,69.8,66.2,88,30.04,4.3,Calm,Calm,-,N/A,,Partly Cloudy,0,2013-10-05 04:00:00
6:30 AM,69.8,66.2,88,30.04,4.3,Calm,Calm,-,N/A,,Partly Cloudy,0,2013-10-05 04:30:00
7:00 AM,68.0,66.2,94,30.04,4.3,Calm,Calm,-,N/A,,Partly Cloudy,0,2013-10-05 05:00:00
7:30 AM,69.8,66.2,88,30.04,6.2,Calm,Calm,-,N/A,,Partly Cloudy,0,2013-10-05 05:30:00
8:00 AM,68.0,66.2,94,30.06,6.2,Variable,2.3,-,N/A,,Partly Cloudy,0,2013-10-05 06:00:00
8:30 AM,69.8,68.0,94,30.06,6.2,Variable,1.2,-,N/A,,Partly Cloudy,0,2013-10-05 06:30:00
9:00 AM,71.6,68.0,88,30.06,6.2,ENE,3.5,-,N/A,,Partly Cloudy,70,2013-10-05 07:00:00
9:30 AM,73.4,68.0,83,30.09,6.2,ENE,6.9,-,N/A,,Partly Cloudy,70,2013-10-05 07:30:00
10:00 AM,75.2,66.2,73,30.09,6.2,ENE,12.7,-,N/A,,Partly Cloudy,70,2013-10-05 08:00:00
10:30 AM,77.0,66.2,69,30.12,6.2,ENE,13.8,-,N/A,,Partly Cloudy,60,2013-10-05 08:30:00
11:00 AM,77.0,64.4,65,30.12,6.2,ENE,13.8,-,N/A,,Partly Cloudy,70,2013-10-05 09:00:00
11:30 AM,77.0,64.4,65,30.12,6.2,ENE,12.7,-,N/A,,Partly Cloudy,70,2013-10-05 09:30:00
12:00 PM,78.8,64.4,61,30.12,6.2,East,13.8,-,N/A,,Partly Cloudy,80,2013-10-05 10:00:00
12:30 PM,78.8,64.4,61,30.12,6.2,ENE,16.1,-,N/A,,Partly Cloudy,60,2013-10-05 10:30:00
1:00 PM,80.6,62.6,54,30.12,6.2,ENE,15.0,-,N/A,,Partly Cloudy,60,2013-10-05 11:00:00
1:30 PM,80.6,62.6,54,30.12,6.2,ENE,15.0,-,N/A,,Partly Cloudy,70,2013-10-05 11:30:00
2:00 PM,82,75,73,30.13,19,East,16.1,,,,Scattered Clouds,80,2013-10-05 12:00:00
2:00 PM,80.6,62.6,54,30.12,6.2,ENE,15.0,-,N/A,,Partly Cloudy,70,2013-10-05 12:00:00
2:30 PM,80.6,60.8,51,30.12,6.2,ENE,16.1,-,N/A,,Partly Cloudy,60,2013-10-05 12:30:00
3:00 PM,80.6,60.8,51,30.12,6.2,ENE,16.1,-,N/A,,Partly Cloudy,70,2013-10-05 13:00:00
3:30 PM,80.6,62.6,54,30.12,6.2,East,13.8,-,N/A,,Partly Cloudy,80,2013-10-05 13:30:00
4:00 PM,80.6,62.6,54,30.12,6.2,East,15.0,-,N/A,,Partly Cloudy,80,2013-10-05 14:00:00
4:30 PM,78.8,60.8,54,30.12,6.2,East,16.1,-,N/A,,Partly Cloudy,80,2013-10-05 14:30:00
5:00 PM,78.8,59.0,51,30.12,6.2,ENE,16.1,-,N/A,,Partly Cloudy,60,2013-10-05 15:00:00
5:30 PM,77.0,60.8,57,30.12,6.2,ENE,17.3,-,N/A,,Partly Cloudy,60,2013-10-05 15:30:00
6:00 PM,77.0,60.8,57,30.12,6.2,ENE,16.1,-,N/A,,Partly Cloudy,70,2013-10-05 16:00:00
6:30 PM,75.2,59.0,57,30.12,6.2,ENE,15.0,-,N/A,,Partly Cloudy,60,2013-10-05 16:30:00
7:00 PM,75.2,57.2,53,30.12,6.2,ENE,16.1,-,N/A,,Partly Cloudy,60,2013-10-05 17:00:00
7:30 PM,73.4,59.0,61,30.15,6.2,ENE,11.5,-,N/A,,Partly Cloudy,60,2013-10-05 17:30:00
8:00 PM,72,60,57,30.16,19,ENE,10.4,,,,Scattered Clouds,60,2013-10-05 18:00:00
8:00 PM,73.4,60.8,65,30.15,6.2,ENE,9.2,-,N/A,,Partly Cloudy,60,2013-10-05 18:00:00
8:30 PM,71.6,60.8,69,30.15,6.2,ENE,9.2,-,N/A,,Partly Cloudy,60,2013-10-05 18:30:00
9:00 PM,71.6,60.8,69,30.15,6.2,ENE,9.2,-,N/A,,Partly Cloudy,60,2013-10-05 19:00:00
9:30 PM,69.8,60.8,73,30.15,6.2,NE,10.4,-,N/A,,Partly Cloudy,50,2013-10-05 19:30:00
10:00 PM,69.8,60.8,73,30.15,6.2,NE,8.1,-,N/A,,Partly Cloudy,50,2013-10-05 20:00:00
10:30 PM,69.8,60.8,73,30.18,6.2,ENE,8.1,-,N/A,,Partly Cloudy,60,2013-10-05 20:30:00
11:00 PM,68.0,60.8,78,30.18,6.2,ENE,6.9,-,N/A,,Partly Cloudy,60,2013-10-05 21:00:00
11:30 PM,66.2,60.8,83,30.18,6.2,ENE,4.6,-,N/A,,Partly Cloudy,70,2013-10-05 21:30:00